Welcome to the New NWS' Forecast!
Most changes are behind the scenes, but click here for differences you might notice.
Latest weather observations around

Augusta, Augusta State Airport (KAUG)

Using English Units (Switch to International System of Units)
Date/ Time (EDT) Wind (mph) Vis. (mi) Weather Sky Cond. Temp (°F) Rel. Humidity Wind Chill (°F) Heat Index (°F) Pressure Precip. (in)
Air Dwpt 6 hour Altimeter (inHg) Sea level (inHg) 1 hr 3 hr 6 hr
Max Min
Aug 16 23:53 WNW 3 10 Clear CLR 63 55     75%     30.1 30.1      
Aug 16 22:53 Calm 10 Clear CLR 64 56     75%     30.09 30.09      
Aug 16 21:53 NNW 7 10 Clear CLR 63 56     78%     30.08 30.08      
Aug 16 20:53 NW 5 10 Clear CLR 68 55     63%     30.06 30.06      
Aug 16 19:53 NNW 5 10 Clear CLR 69 56     63%     30.04 30.04      
Aug 16 18:53 NNW 8 10 Clear CLR 75 55     50%   75 30.03 30.02      
Aug 16 17:53 NW 11 10 Clear CLR 78 54     43%   78 30.01 30.01      
Aug 16 16:53 NW 14 10 Clear CLR 79 53     41%   78 30 30      
Aug 16 15:53 NNW 14 10 Clear CLR 80 54     41%   80 29.99 29.98      
Aug 16 14:53 NNW 9 10 Clear CLR 80 57     45%   80 29.99 29.98      
Aug 16 13:53 NNW 10 10 Clear CLR 81 57     44%   81 29.98 29.97     0
Aug 16 12:53 WNW 10 10 Clear CLR 80 56     44%   80 29.97 29.96      
Aug 16 11:53 NW 10 10 Mostly Cloudy BKN042 80 61     52%   81 29.97 29.96      
Aug 16 10:53 NW 6 10 Clear CLR 79 63     58%   79 29.96 29.96   0  
Aug 16 09:53 WNW 7 10 Mostly Clear FEW070 77 64     64%   77 29.96 29.96      
Aug 16 08:53 WNW 6 10 Cloudy FEW070 OVC090 72 65     79%   73 29.97 29.96 0    
Aug 16 07:53 WNW 6 10 Cloudy BKN070 OVC090 71 64     79%   72 29.96 29.95      
Aug 16 06:53 Calm 10 Mostly Cloudy BKN095 BKN110 70 65     84%     29.94 29.93      
Aug 16 05:53 Calm 10 Mostly Cloudy BKN100 BKN120 68 65     90%     29.93 29.92      
Aug 16 04:53 Calm 10 Mostly Cloudy BKN110 69 64     84%     29.91 29.91      
Aug 16 03:53 Calm 10 Partly Cloudy FEW050 SCT100 69 63     81%     29.9 29.9      
Aug 16 02:53 Calm 10 Cloudy OVC100 70 66     87%     29.88 29.88      
Aug 16 01:53 NW 6 10 Clear CLR 70 68     93%     29.88 29.87      
Aug 16 00:53 NNW 5 7 Mostly Cloudy BKN060 70 69     97%     29.88 29.88      
Aug 15 23:53 Calm 6 Fog/Mist FEW002 FEW090 BKN110 70 69     97%     29.88 29.87      
Aug 15 22:53 Calm 9 Clear CLR 72 70     93%   73 29.87 29.86      
Aug 15 21:53 S 3 10 Clear CLR 72 70     93%   73 29.87 29.87      
Aug 15 20:53 Calm 10 Clear CLR 73 70     90%   74 29.86 29.86      
Aug 15 19:53 6 10 Clear CLR 74 71     91%   75 29.83 29.82      
Aug 15 18:53 S 6 10 Partly Cloudy SCT060 78 69     74%   79 29.81 29.81      
Aug 15 17:53 SSW 5 10 Clear CLR 82 70     67%   86 29.8 29.79      
Aug 15 16:53 6 10 Partly Cloudy SCT039 82 68     63%   85 29.8 29.79      
Aug 15 15:53 WSW 5 10 Clear CLR 81 68     65%   84 29.81 29.81      
Aug 15 14:53 7 10 Clear CLR 82 67     60%   85 29.8 29.8      
Aug 15 13:53 6 10 Partly Cloudy SCT031 82 67     60%   85 29.81 29.8      
Aug 15 12:53 3 10 Partly Cloudy SCT029 81 68     65%   84 29.82 29.82      
Aug 15 11:53 NNW 6 10 Mostly Clear FEW019 78 67     69%   79 29.84 29.83      
Aug 15 11:22 5 10 Partly Cloudy SCT016 76 67     74%   77 29.84        
Aug 15 11:03 5 10 Mostly Cloudy BKN015 74 68     82%   75 29.85        
Aug 15 10:53 3 10 Mostly Cloudy BKN013 74 68     82%   75 29.85 29.84      
Aug 15 09:53 5 10 Cloudy OVC012 72 68     87%   73 29.84 29.83      
Aug 15 08:53 5 10 Cloudy OVC011 72 67     84%   73 29.83 29.83      
Aug 15 07:53 W 3 10 Mostly Cloudy BKN010 71 68     90%   72 29.83 29.83      
Aug 15 06:53 WSW 3 9 Cloudy OVC011 69 68     96%     29.82 29.82      
Aug 15 05:53 Calm 8 Cloudy OVC011 68 68     100%     29.82 29.81      
Aug 15 05:37 Calm 6 Fog/Mist FEW003 OVC011 68 68     100%     29.82        
Aug 15 05:30 NW 3 2.5 Fog/Mist SCT003 OVC011 68 68     100%     29.82        
Aug 15 05:28 NW 3 2 Fog/Mist BKN003 OVC009 68 68     100%     29.82        
Aug 15 05:22 NW 3 0.75 Fog/Mist BKN003 OVC009 68 68     100%     29.82        
Aug 15 04:53 NW 3 0.25 Fog VV002 68 68     100%     29.81 29.81      
Aug 15 04:40 Calm 0.5 Fog VV002 69 68     96%     29.81        
Aug 15 04:31 Calm 0.25 Fog VV002 68 68     100%     29.81        
Aug 15 04:18 NW 3 0.5 Fog VV003 68 68     100%     29.81        
Aug 15 04:06 Calm 0.25 Fog VV003 68 68     100%     29.81        
Aug 15 03:53 Calm 0.75 Fog/Mist VV004 69 69     100%     29.82 29.81      
Aug 15 03:32 Calm 0.5 Fog VV004 69 69     100%     29.81        
Aug 15 03:12 Calm 0.25 Fog VV002 69 69     100%     29.82        
Aug 15 02:53 SSE 3 0.5 Fog VV002 69 69     100%     29.82 29.81      
Aug 15 02:41 SE 5 1.5 Fog/Mist OVC002 69 68     96%     29.82        
Aug 15 01:53 SSE 3 10 Cloudy OVC002 69 68     96%     29.83 29.83 0   0
Aug 15 01:37 S 3 3 Fog/Mist OVC002 68 68     100%     29.84   0    
Aug 15 01:22 S 3 1.25 Fog/Mist OVC002 68 68     100%     29.84   0    
Aug 15 01:04 Calm 0.75 Fog/Mist BKN002 OVC075 69 69     100%     29.84   0    
Aug 15 00:57 Calm 2.5 Fog/Mist BKN002 OVC075 69 69     100%     29.84   0    
Aug 15 00:53 SSE 3 7 Light Rain SCT002 OVC075 69 69     100%     29.84 29.84 0    
Aug 15 00:18 Calm 10 Light Rain FEW022 SCT033 OVC080 69 68     96%     29.86   0    
Aug 15 00:02 SSE 3 10 Light Rain SCT004 BKN023 OVC070 69 68     96%     29.86   0    
Aug 14 23:53 SSW 5 10 Cloudy BKN004 BKN010 OVC023 69 68     96%     29.86 29.86      
Aug 14 23:18 SSE 3 10 Cloudy OVC005 69 68     96%     29.86        
Aug 14 22:53 5 10 Cloudy OVC004 69 68     96%     29.86 29.86      
Aug 14 22:32 S 5 4 Fog/Mist OVC002 69 69     100%     29.86        
Aug 14 22:18 S 6 2 Fog/Mist OVC002 69 69     100%     29.87        
Aug 14 21:53 SSE 8 8 Cloudy OVC003 70 69     97%     29.87 29.87      
Aug 14 21:31 SSE 8 10 Cloudy OVC004 70 69     97%     29.87        
Aug 14 20:53 5 10 Cloudy OVC006 71 69     93%   72 29.87 29.87      
Aug 14 20:24 SSE 7 10 Mostly Cloudy BKN008 71 69     93%   72 29.87        
Aug 14 20:12 SSE 8 10 Partly Cloudy SCT007 71 69     93%   72 29.87        
Aug 14 19:53 SSE 8 10 Clear CLR 72 69     91%   73 29.86 29.85      
Aug 14 18:53 S 6 10 Clear CLR 74 69     85%   75 29.85 29.85      
Aug 14 17:53 S 8 10 Partly Cloudy SCT020 76 69     79%   77 29.86 29.86      
Aug 14 17:21 S 7 10 Partly Cloudy SCT020 76 70     82%   77 29.87        
Aug 14 16:53 SE 7 10 Mostly Cloudy BKN015 BKN021 76 70     82%   77 29.87 29.86      
Aug 14 16:09 SSE 6 10 Cloudy BKN016 BKN023 OVC036 75 70     84%   76 29.88        
Aug 14 15:53 SE 5 10 Cloudy BKN012 OVC036 75 70     84%   76 29.88 29.88      
Aug 14 15:12 SSE 7 10 Cloudy SCT010 BKN016 OVC025 74 70     87%   75 29.9        
Aug 14 14:53 SE 6 10 Cloudy BKN008 BKN012 OVC026 74 71     91%   75 29.9 29.89      
Aug 14 13:53 SSE 7 6 Fog/Mist OVC006 73 71     94%   74 29.91 29.9     0
Aug 14 12:53 SE 5 10 Cloudy OVC005 72 71     97%   73 29.92 29.92 0    
Aug 14 12:21 SE 6 9 Light Rain OVC006 71 70     96%   72 29.93   0    
Aug 14 12:14 SSE 6 2.5 Light Rain and Fog/Mist OVC006 71 70     96%   72 29.93   0    
Aug 14 11:53 SE 5 5 Light Rain and Fog/Mist OVC005 71 69     93%   72 29.93 29.93 0    
Notice The following observation data may not be complete
Aug 14 11:28   10 Cloudy OVC005          %              
Aug 14 10:53 ESE 6 7 Cloudy OVC004 71 69     93%   72 29.94 29.94 0 0  
Aug 14 10:46 SSE 3 6 Fog/Mist OVC004 70 69     97%     29.94   0    
Aug 14 09:53 ESE 5 10 Cloudy OVC006 70 69     97%     29.95 29.95 0    
Aug 14 08:53 SE 5 10 Cloudy OVC005 70 68     93%     29.95 29.95      
Aug 14 08:50 E 5 10 Cloudy OVC005 70 68     94%     29.95        
Aug 14 06:53 E 3 8 Cloudy OVC003 68 67     96%     29.95 29.95 0    
Aug 14 06:31 ENE 6 3 Light Rain and Fog/Mist OVC003 68 67     96%     29.95   0    
Aug 14 06:15 ENE 7 6 Fog/Mist OVC005 68 67     96%     29.95        
Aug 14 05:53 NE 6 5 Fog/Mist OVC002 68 67     96%     29.96 29.95      
Aug 14 03:53 E 3 8 Cloudy OVC003 68 67     96%     29.98 29.97 0    
Aug 14 02:53 E 3 10 Light Rain OVC004 68 67     96%     29.99 29.98 0    
Aug 14 01:53 NNE 3 7 Cloudy OVC003 68 67     96%     30 29.99      
Aug 14 01:45 NE 3 6 Fog/Mist OVC004 68 67     96%     30        
Aug 14 00:53 ESE 3 10 Cloudy OVC005 68 67     96%     30.01 30.01      
May 15 12:53 NW 14 9 Light Rain FEW029 BKN034 OVC047 60 56     86%     29.77 29.77 0    
May 15 04:53 S 3 0.25 Fog VV001 47 47     100% 46   29.8 29.8      
May 13 19:53 S 7 10 Clear CLR 52 42     69%     30.09 30.09      
May 13 12:53 SSE 5 10 Clear CLR 64 29     27%     30.16 30.16      
May 12 00:53 Calm 10 Clear CLR 43 24     47%     30.16 30.17      
Jun 11 16:53 SW 11 10 Clear CLR 91        %     29.77 29.77      
Jun 11 15:53 SW 15 10 Clear   90 53     29%   88 29.77 29.76      
Jun 11 12:53   10 Clear CLR 87 58     37%   86 29.8 29.79      
Jun 10 13:53 SW 8 10 Clear CLR 77 48     36%   76 29.92 29.92      
Jun 09 00:53 SSE 6 10 Clear CLR 53 42     66%     29.86 29.86      
Jun 08 11:53 5 10 Clear CLR 80        %     29.97 29.97      
Jun 05 22:53 E 9 10 Clear   51 44     77%     29.99 30      
Jun 05 18:53 E 9 10 Cloudy BKN015 OVC040 51 47     86%     29.99 29.99      
Notice The following observation data may not be complete
Jun 05 18:05   10 Cloudy SCT008 OVC015          %